• En España
  • Lista de países
  • Para 7 días
  • Temperatura del agua
  • Mapa Satelital
  • El tiempo en el mapa
  • Informadores
  • user-avatar
    Iniciar sesión

    Tiempo cada hora Quarteira

    Hoy, 22 Julio, Domingo

    Tiempo Temperatura Precipitaciones Viento Presión Humedad
    00:00 +20°C° 0 mm 5 mps 759 mmHg 73%
    01:00 +20°C° 0 mm 5 mps 759 mmHg 78%
    02:00 +19°C° 0 mm 5 mps 759 mmHg 84%
    03:00 +19°C° 0 mm 5 mps 759 mmHg 86%
    04:00 +18°C° 0 mm 4 mps 759 mmHg 89%
    05:00 +18°C° 0 mm 4 mps 759 mmHg 92%
    06:00 +20°C° 0 mm 4 mps 759 mmHg 80%
    07:00 +22°C° 0 mm 4 mps 759 mmHg 69%
    08:00 +26°C° 0 mm 3 mps 759 mmHg 58%
    09:00 +28°C° 0 mm 4 mps 759 mmHg 50%
    10:00 +30°C° 0 mm 4 mps 759 mmHg 42%
    11:00 +33°C° 0 mm 4 mps 759 mmHg 34%
    12:00 +34°C° 0 mm 4 mps 759 mmHg 33%
    13:00 +35°C° 0 mm 5 mps 759 mmHg 32%
    14:00 +35°C° 0 mm 5 mps 759 mmHg 31%
    15:00 +34°C° 0 mm 6 mps 759 mmHg 36%
    16:00 +33°C° 0 mm 6 mps 759 mmHg 41%
    17:00 +32°C° 0 mm 6 mps 759 mmHg 46%
    18:00 +28°C° 0 mm 6 mps 759 mmHg 56%
    19:00 +26°C° 0 mm 5 mps 759 mmHg 66%
    20:00 +22°C° 0 mm 5 mps 760 mmHg 76%
    21:00 +22°C° 0 mm 5 mps 760 mmHg 78%
    22:00 +21°C° 0 mm 4 mps 760 mmHg 81%
    23:00 +20°C° 0 mm 4 mps 760 mmHg 83%

    Mañana, 23 Julio, Lunes

    Tiempo Temperatura Precipitaciones Viento Presión Humedad
    00:00 +20°C° 0 mm 4 mps 760 mmHg 84%
    01:00 +20°C° 0 mm 3 mps 760 mmHg 85%
    02:00 +19°C° 0 mm 3 mps 760 mmHg 86%
    03:00 +19°C° 0 mm 3 mps 760 mmHg 86%
    04:00 +19°C° 0 mm 3 mps 760 mmHg 86%
    05:00 +19°C° 0 mm 3 mps 760 mmHg 86%
    06:00 +21°C° 0 mm 2 mps 760 mmHg 75%
    07:00 +24°C° 0 mm 2 mps 760 mmHg 64%
    08:00 +27°C° 0 mm 2 mps 760 mmHg 53%
    09:00 +29°C° 0 mm 2 mps 760 mmHg 46%
    10:00 +31°C° 0 mm 3 mps 760 mmHg 39%
    11:00 +34°C° 0 mm 3 mps 760 mmHg 32%
    12:00 +34°C° 0 mm 4 mps 760 mmHg 31%
    13:00 +35°C° 0 mm 5 mps 760 mmHg 31%
    14:00 +35°C° 0 mm 5 mps 760 mmHg 30%
    15:00 +33°C° 0 mm 6 mps 760 mmHg 35%
    16:00 +32°C° 0 mm 6 mps 760 mmHg 40%
    17:00 +29°C° 0 mm 7 mps 760 mmHg 45%
    18:00 +26°C° 0 mm 7 mps 760 mmHg 54%
    19:00 +23°C° 0 mm 6 mps 760 mmHg 63%
    20:00 +21°C° 0 mm 6 mps 761 mmHg 72%
    21:00 +20°C° 0 mm 6 mps 761 mmHg 76%
    22:00 +19°C° 0 mm 5 mps 761 mmHg 81%
    23:00 +19°C° 0 mm 5 mps 761 mmHg 85%

    Pasado mañana, 24 Julio, Martes

    Tiempo Temperatura Precipitaciones Viento Presión Humedad
    00:00 +19°C° 0 mm 5 mps 761 mmHg 87%
    01:00 +18°C° 0 mm 4 mps 761 mmHg 89%
    02:00 +18°C° 0 mm 4 mps 761 mmHg 92%
    03:00 +18°C° 0 mm 4 mps 761 mmHg 93%
    04:00 +17°C° 0 mm 4 mps 761 mmHg 94%
    05:00 +17°C° 0 mm 4 mps 761 mmHg 95%
    06:00 +19°C° 0 mm 4 mps 761 mmHg 84%
    07:00 +22°C° 0 mm 3 mps 761 mmHg 73%
    08:00 +25°C° 0 mm 3 mps 761 mmHg 61%
    09:00 +27°C° 0 mm 4 mps 761 mmHg 54%
    10:00 +29°C° 0 mm 4 mps 761 mmHg 46%
    11:00 +30°C° 0 mm 4 mps 761 mmHg 38%
    12:00 +32°C° 0 mm 5 mps 761 mmHg 37%
    13:00 +33°C° 0 mm 6 mps 760 mmHg 36%
    14:00 +33°C° 0 mm 6 mps 760 mmHg 34%
    15:00 +32°C° 0 mm 7 mps 760 mmHg 40%
    16:00 +30°C° 0 mm 7 mps 760 mmHg 46%
    17:00 +28°C° 0 mm 7 mps 760 mmHg 52%
    18:00 +26°C° 0 mm 7 mps 760 mmHg 61%
    19:00 +23°C° 0 mm 7 mps 760 mmHg 69%
    20:00 +21°C° 0 mm 6 mps 760 mmHg 78%
    21:00 +21°C° 0 mm 6 mps 761 mmHg 82%
    22:00 +20°C° 0 mm 6 mps 761 mmHg 85%
    23:00 +20°C° 0 mm 5 mps 761 mmHg 89%

    25 Julio, Miércoles

    Tiempo Temperatura Precipitaciones Viento Presión Humedad
    00:00 +19°C° 0 mm 5 mps 761 mmHg 90%
    01:00 +19°C° 0 mm 5 mps 760 mmHg 91%
    02:00 +19°C° 0 mm 4 mps 760 mmHg 93%
    03:00 +19°C° 0 mm 4 mps 760 mmHg 93%
    04:00 +19°C° 0 mm 4 mps 760 mmHg 93%
    05:00 +19°C° 0 mm 4 mps 760 mmHg 93%
    06:00 +20°C° 0 mm 4 mps 761 mmHg 86%
    07:00 +21°C° 0 mm 4 mps 761 mmHg 79%
    08:00 +22°C° 0 mm 4 mps 761 mmHg 72%
    09:00 +25°C° 0 mm 4 mps 761 mmHg 64%
    10:00 +27°C° 0 mm 4 mps 761 mmHg 55%
    11:00 +29°C° 0 mm 4 mps 761 mmHg 46%
    12:00 +30°C° 0 mm 5 mps 761 mmHg 43%
    13:00 +32°C° 0 mm 6 mps 761 mmHg 40%
    14:00 +33°C° 0 mm 6 mps 760 mmHg 37%
    15:00 +32°C° 0 mm 7 mps 760 mmHg 41%
    16:00 +30°C° 0 mm 7 mps 760 mmHg 46%
    17:00 +29°C° 0 mm 7 mps 760 mmHg 50%
    18:00 +27°C° 0 mm 7 mps 760 mmHg 55%
    19:00 +24°C° 0 mm 7 mps 761 mmHg 60%
    20:00 +23°C° 0 mm 6 mps 761 mmHg 65%
    21:00 +22°C° 0 mm 6 mps 761 mmHg 68%
    22:00 +21°C° 0 mm 6 mps 761 mmHg 70%
    23:00 +20°C° 0 mm 6 mps 761 mmHg 73%

    26 Julio, Jueves

    Tiempo Temperatura Precipitaciones Viento Presión Humedad
    00:00 +20°C° 0 mm 6 mps 761 mmHg 78%
    01:00 +19°C° 0 mm 5 mps 761 mmHg 82%
    02:00 +17°C° 0 mm 5 mps 760 mmHg 87%
    03:00 +17°C° 0 mm 5 mps 760 mmHg 89%
    04:00 +17°C° 0 mm 5 mps 760 mmHg 92%
    05:00 +17°C° 0 mm 5 mps 760 mmHg 94%
    06:00 +20°C° 0 mm 4 mps 760 mmHg 83%
    07:00 +21°C° 0 mm 4 mps 760 mmHg 73%
    08:00 +24°C° 0 mm 3 mps 761 mmHg 63%
    09:00 +27°C° 0 mm 4 mps 760 mmHg 53%
    10:00 +29°C° 0 mm 4 mps 760 mmHg 42%
    11:00 +33°C° 0 mm 4 mps 760 mmHg 32%
    12:00 +34°C° 0 mm 4 mps 760 mmHg 31%
    13:00 +35°C° 0 mm 5 mps 759 mmHg 29%
    14:00 +36°C° 0 mm 5 mps 759 mmHg 27%
    15:00 +35°C° 0 mm 6 mps 759 mmHg 31%
    16:00 +34°C° 0 mm 6 mps 759 mmHg 35%
    17:00 +33°C° 0 mm 6 mps 758 mmHg 39%
    18:00 +30°C° 0 mm 6 mps 759 mmHg 44%
    19:00 +28°C° 0 mm 6 mps 759 mmHg 48%
    20:00 +26°C° 0 mm 6 mps 759 mmHg 53%
    21:00 +24°C° 0 mm 6 mps 759 mmHg 53%
    22:00 +23°C° 0 mm 6 mps 759 mmHg 54%
    23:00 +22°C° 0 mm 5 mps 759 mmHg 54%

    27 Julio, Viernes

    Tiempo Temperatura Precipitaciones Viento Presión Humedad
    00:00 +22°C° 0 mm 5 mps 759 mmHg 56%
    01:00 +21°C° 0 mm 5 mps 759 mmHg 59%
    02:00 +20°C° 0 mm 5 mps 759 mmHg 62%
    03:00 +19°C° 0 mm 5 mps 759 mmHg 67%
    04:00 +19°C° 0 mm 5 mps 759 mmHg 71%
    05:00 +19°C° 0 mm 5 mps 759 mmHg 76%
    06:00 +21°C° 0 mm 5 mps 759 mmHg 68%
    07:00 +23°C° 0 mm 5 mps 759 mmHg 61%
    08:00 +27°C° 0 mm 4 mps 760 mmHg 53%
    09:00 +29°C° 0 mm 4 mps 759 mmHg 45%
    10:00 +33°C° 0 mm 4 mps 759 mmHg 36%
    11:00 +36°C° 0 mm 3 mps 759 mmHg 27%
    12:00 +36°C° 0 mm 4 mps 759 mmHg 27%
    13:00 +37°C° 0 mm 5 mps 759 mmHg 27%
    14:00 +38°C° 0 mm 6 mps 759 mmHg 27%
    15:00 +36°C° 0 mm 7 mps 759 mmHg 32%
    16:00 +35°C° 0 mm 7 mps 759 mmHg 36%
    17:00 +34°C° 0 mm 7 mps 758 mmHg 41%
    18:00 +32°C° 0 mm 7 mps 759 mmHg 47%
    19:00 +29°C° 0 mm 7 mps 759 mmHg 54%
    20:00 +26°C° 0 mm 7 mps 760 mmHg 60%
    21:00 +24°C° 0 mm 7 mps 760 mmHg 65%
    22:00 +23°C° 0 mm 6 mps 760 mmHg 69%
    23:00 +22°C° 0 mm 6 mps 760 mmHg 74%
    Mostrar más